OK1RPL-6 Weather Reports


time (UTC)temp
F
wind
direction
speed
knots
gust
knots
rain 1hr
in
rain 24hr
in
rain mn
in
humidity
%
barometer
mb
20260506031044 36 180 1.7 6.1 0.00 0.20 0.00 1005.9
20260506025512 36 222 0.9 2.6 0.00 0.20 0.00 1005.9
20260506023924 36 222 0.9 2.6 0.00 0.20 0.00 1005.9
20260506020810 37 222 1.7 5.2 0.00 0.20 0.00 1005.7
20260506015232 37 315 1.7 6.1 0.00 0.20 0.00 1006.7
20260506013645 37 222 1.7 7.8 0.01 0.20 0.00 1006.7
20260506012109 37 222 1.7 6.1 0.01 0.20 0.00 1006.7
20260506012107 37 222 1.7 6.1 0.01 0.20 0.00 1006.7
20260506010531 37 222 0.9 3.5 0.00 0.20 0.00 1006.8
20260505224436 38 222 0.0 0.9 0.00 0.20 0.00 1005.3
20260505224430 38 222 0.0 0.9 0.00 0.20 0.00 1005.3
20260505202329 38 315 0.9 5.2 0.04 0.18 0.00 1005.3
20260505195215 38 315 0.9 5.2 0.03 0.18 0.00 1005.3
20260505195210 38 315 0.9 5.2 0.03 0.18 0.00 1005.3
20260505181813 43 222 4.3 11.3 0.00 0.00 0.00 1003.4
20260505180236 43 315 2.6 8.7 0.00 0.00 0.00 1002.1
20260505174658 45 270 0.9 3.5 0.00 0.00 0.00 1001.8
20260505173121 46 45 1.7 6.1 0.00 0.00 0.00 1001.7
20260505171534 46 90 1.7 7.8 0.00 0.00 0.00 1001.6
20260505165956 46 90 0.9 2.6 0.00 0.00 0.00 1001.5
20260505162842 47 0 1.7 6.1 0.00 0.00 0.00 1001.4
20260505161255 47 90 0.9 2.6 0.00 0.00 0.00 1001.3
20260505152604 47 0 1.7 6.1 0.00 0.00 0.00 1001.0
20260505124924 49 135 1.7 7.0 0.00 0.00 0.00 1002.6
20260505123346 49 45 1.7 6.1 0.00 0.00 0.00 1002.4
20260505121809 49 45 2.6 7.0 0.00 0.00 0.00 1002.5
20260505120222 50 180 1.7 7.0 0.00 0.00 0.00 1001.6
20260505114645 49 0 1.7 7.0 0.00 0.00 0.00 1001.8
20260505113108 49 0 2.6 7.0 0.00 0.00 0.00 1002.0
20260505111531 50 90 1.7 6.1 0.00 0.00 0.00 1001.8
20260505095706 49 90 1.7 6.1 0.00 0.00 0.00 1003.0
20260505095704 49 90 1.7 6.1 0.00 0.00 0.00 1003.0
20260505094128 49 135 1.7 6.1 0.00 0.00 0.00 1003.3
20260505092551 48 90 1.7 7.0 0.00 0.00 0.00 1003.4
20260505091014 49 0 1.7 6.1 0.00 0.00 0.00 1003.5
20260505085427 49 90 1.7 5.2 0.00 0.00 0.00 1003.6
20260505083849 48 0 0.9 6.1 0.00 0.00 0.00 1003.5
20260505083845 48 0 0.9 6.1 0.00 0.00 0.00 1003.5
20260505080735 0 270 0.9 2.6 6.00 6.00 0.00
20260505075148 47 0 0.9 2.6 0.00 0.00 0.00 1004.8
20260505072034 47 222 0.9 2.6 0.00 0.00 0.00 1004.9
20260505063333 45 315 0.9 3.5 0.00 0.00 0.00 1005.4
20260505061755 44 0 0.9 2.6 0.00 0.00 0.00 1005.7
20260505053055 40 90 0.9 3.5 0.00 0.00 0.00 1007.0
20260505051518 39 45 0.9 2.6 0.00 0.00 0.00 1007.1
20260505035701 38 45 0.9 2.6 0.00 0.00 0.00 1008.6
20260505035657 38 45 0.9 2.6 0.00 0.00 0.00 1008.6